Location: �perlecques
(50.8057°N, 2.1521°E)
Time: 19:37:11
(UTC+00:00)

Vanguard 3 - Pass Details

Date: 09 August 2021
Orbit: 510 x 3260 km, 33.3° (Epoch: 17 September)

Event Time Altitude Azimuth Distance (km) Brightness Sun altitude
Rises 21:17:12 0° 269° (W) 6,196 12.2 -15.0°
Reaches altitude 10° 21:22:18 10° 257° (WSW) 5,553 11.7 -15.5°
Maximum altitude 21:34:11 23° 214° (SW) 5,067 11.0 -16.6°
Enters shadow 21:45:53 12° 176° (S) 5,963 11.0 -17.7°
